Regional Weather Roundup
Issued by NWS Charleston, SC

Current Version | Previous Version | Text Only | Print | Product List | Glossary Off
Versions: 1 2 3 4 5 6 7 8 9 10 11 12 13 14 15 16 17 18 19 20 21 22 23 24 25 26 27 28 29 30 31 32 33 34 35 36 37 38 39 40 41 42 43 44 45 46 47 48 49 50
000 ASUS42 KCHS 171427 RWRCHS Regional Weather Roundup National Weather Service Charleston SC 1000 AM EDT TUE SEP 17 2019 NOTE: "fair" indicates few or no clouds below 12,000 feet with no significant weather and/or obstructions to visibility. Not all stations are quality controlled. Use data with caution, especially dewpoint observations. SCZ027-030-031-034>040-042>050-171500- ...Southeast South Carolina... CITY SKY/WX TMP DP RH WIND PRES REMARKS N Charleston FAIR 82 70 66 N8 29.97R Waterfront Prk N/A 79 71 76 N7 29.80R Mount Pleasant FAIR 82 72 69 VRB6 29.97R Johns Island FAIR 84 72 65 N9 29.97R Pinopolis N/A 77 73 88 N5 29.91R Moncks Corner FAIR 81 70 69 N6 29.98S Summerville FAIR 81 72 74 NE6 29.97S Beaufort MCAS FAIR 83 73 72 N6 29.98S Beaufort Arpt FAIR 81 70 69 N6 29.98R Hilton Head Is SUNNY 82 72 69 N7 29.98S Walterboro FAIR 81 70 69 NE5 30.00R Allendale FAIR 84 66 54 CALM 29.99S ...Southern Midlands and Pee Dee... CITY SKY/WX TMP DP RH WIND PRES REMARKS Georgetown FAIR 81 70 69 N8 29.98R Kingstree FAIR 79 70 73 N3 29.99R Orangeburg FAIR 83 66 56 CALM 29.99S Barnwell NOT AVBL Aiken FAIR 84 63 48 SE5 30.03S Manning FAIR 79 68 69 NE3 29.99S Columbia FAIR 80 66 62 SE3 29.99R Sumter FAIR 82 67 61 NE3 29.99R Florence FAIR 80 68 66 NE3 29.99S Myrtle Beach FAIR 80 71 74 N8 29.97R N Myrtle Beach FAIR 81 71 71 NE7 29.95S $$ GAZ063-065-086>088-099>101-113>116-118-119-134>141-150-171500- ...Southeast Georgia... CITY SKY/WX TMP DP RH WIND PRES REMARKS Savannah Arpt FAIR 84 70 62 N5 29.99R Hunter AAF FAIR 83 70 63 N5 29.96R Fort Stewart FAIR 83 66 56 NE3 29.97S Statesboro FAIR 82 66 58 CALM 30.00S Sylvania FAIR 83 69 62 CALM 30.01S Claxton FAIR 83 70 64 CALM 30.00S Millen FAIR 85 65 52 CALM 30.00S ...CSRA, Central and far Southeast Georgia... CITY SKY/WX TMP DP RH WIND PRES REMARKS Thomson PTSUNNY 83 68 59 MISG 30.01S Augusta-Bush FAIR 81 69 67 CALM 29.99R Augusta-Daniel NOT AVBL Swainsboro FAIR 86 64 48 NW3 30.02S Vidalia FAIR 86 61 42 CALM 30.02R Eastman FAIR 84 68 59 CALM 30.04S Hazlehurst FAIR 84 61 45 CALM 30.00S Alma FAIR 82 65 56 CALM 30.00R Waycross FAIR 84 58 41 N3 30.01R Jesup FAIR 84 68 58 CALM 30.00R Baxley FAIR 82 64 54 CALM 30.01R Brunswick FAIR 84 71 64 NW6 29.98S Saint Simons FAIR 83 71 67 NW7 29.98R $$ SCZ027-028-034-036>038-045-046-048>050-GAZ119-141-171500- ...Lake and Supplemental Coastal Observations... STATION/POSITION TIME TEMP WIND PRES WAVE SWELL AIR SEA DIR/SP/G HT/PER HT/PER/DIR (UTC) (F) (DEG/KT/KT) (MB) (FT/S) (FT/S/D) Winyah Bay 1345 80 20/ 6 1014.0R Lake Murray 1350 80 90/ 1/ 2 1014.9R Chrlstn Harbor 1336 85 83 360/ 6/ 9 1014.8R ACE Basin NERRS 1345 80 340/ 2 1015.0S Fort Pulaski 1336 79 83 10/ 6/ 8 1015.5R Sapelo Island 1400 85 360/ 7 1015.0 $$ ANZ835-935-AMZ111-154-330-350-352-354-370-450-454-472-171500- ...C-MAN and Buoy Observations... STATION/POSITION TIME TEMP WIND PRES WAVE SWELL AIR SEA DIR/SP/G HT/PER HT/PER/DIR (UTC) (F) (DEG/KT/KT) (MB) (FT/S) (FT/S/D) Buoy 41004 1410 82 10/ 16/ 19 1013.5 Buoy 41008 1350 82 83 10/ 12/ 14 1014.3R 5/10 5/ 90/10 Folly Beach CMAN 1400 81 360/ 10/ 12 1015.2R Capers Nearshore 1408 80 82 30/ 12/ 17 1015.1R Fripp Nearshore 1408 79 83 40/ 12/ 17 1016.6R STATION/POSITION TIME TEMP WIND PRES WAVE SWELL AIR SEA DIR/SP/G HT/PER HT/PER/DIR (UTC) (F) (DEG/KT/KT) (MB) (FT/S) (FT/S/D) 5E St. Marys GA 1400 83 N/A 4/ 9 2/100/11 Frying Pan Buoy 1410 81 82 30/ 19/ 23 1012.7 Buoy 41025 1410 81 83 50/ 17/ 23 1013.1 Cape Lookout NC 1400 80 40/ 21/ 24 1014.0R Buoy 41002 1410 80 30/ 31/ 41 1003.6 Buoy 41010 1410 81 81 330/ 14/ 17 1013.0 St Augustine FL 1400 83 83 330/ 7/ 8 1015.0R $$

USA.gov is the U.S. government's official web portal to all federal, state and local government web resources and services.